Location: Newark
(33.6333°S, 78.8500°W)
Time: 23:57:51
(UTC+00:00)

Tiros 1 despin weight - Pass Details

Date: 23 September 2019
Orbit: 594 x 643 km, 48.2° (Epoch: 16 October)

Event Time Altitude Azimuth Distance (km) Brightness Sun altitude
Rises 04:04:30 0° 301° (WNW) 2,852 - -53.3°
Reaches altitude 10° 04:06:47 10° 298° (WNW) 1,961 - -53.5°
Maximum altitude 04:11:15 64° 216° (SW) 690 - -53.9°
Drops below altitude 10° 04:15:51 10° 134° (SE) 2,010 - -54.3°
Sets 04:18:14 0° 130° (SE) 2,930 - -54.4°
